Weather History for KBTA - May, 2013

Change the Weather History Date:

Monday, May 13, 2013

  Actual Average (KOMA) Record (KOMA)
Temperature  
Mean Temperature 65 °F 61 °F  
Max Temperature 84 °F 73 °F 95 °F (1940)
Min Temperature 46 °F 50 °F 32 °F (1997)
Degree Days  
Heating Degree Days 0 5  
Month to date heating degree days 87  
Since 1 July heating degree days 6089  
Cooling Degree Days 0 2  
Month to date cooling degree days 15  
Year to date cooling degree days 31  
Growing Degree Days 15 (Base 50)    
Moisture  
Dew Point 40 °F    
Average Humidity 41    
Maximum Humidity 68    
Minimum Humidity 20    
Precipitation  
Precipitation 0.00 in 0.16 in 2.48 in (1883)
Month to date precipitation 1.88  
Year to date precipitation 8.40  
Snow  
Snow 0.00 in 0.00 in - ()
Month to date snowfall 0.1  
Since 1 July snowfall 26.5  
Snow Depth -    
Sea Level Pressure  
Sea Level Pressure 29.99 in    
Wind  
Wind Speed 11 mph (South)    
Max Wind Speed 28 mph    
Max Gust Speed 33 mph    
Visibility 10 miles    
Events      
T = Trace of Precipitation, MM = Missing Value Source: NWS Daily Summary

Daily Weather History Graph

Daily Weather History Graph

Search for Another Location

Airport or City:

Trip Planner

Search our weather history database for the weather conditions in past years. The results will help you decide how hot, cold, wet, or windy it might be!

Date:

Astronomy

May. 13, 2013 Rise Set
Actual Time 6:07 AM CDT 8:34 PM CDT
Civil Twilight 5:35 AM CDT 9:06 PM CDT
Nautical Twilight 4:57 AM CDT 9:45 PM CDT
Astronomical Twilight 4:13 AM CDT 10:29 PM CDT
Moon 8:53 AM CDT (5/13) 11:44 PM CDT (5/13)
Length of Visible Light 15h 30m
Length of Day
14h 27m
Waxing Crescent, 12% of the Moon is Illuminated
May 13
Waxing Crescent
May 17
First Quarter
May 24
Full
May 31
Last Quarter
Jun 8
New

Hourly Weather History & Observations

Time (CDT) Temp. Dew Point Humidity Pressure Visibility Wind Dir Wind Speed Gust Speed Precip Events Conditions
12:15 AM 52.5 °F 27.9 °F 39% 30.11 in 10.0 mi SE 5.8 mph - N/A   Clear
12:35 AM 52.0 °F 27.9 °F 39% 30.11 in 10.0 mi SE 3.5 mph - N/A   Clear
12:55 AM 52.0 °F 28.2 °F 40% 30.11 in 10.0 mi SSE 4.6 mph - N/A   Clear
1:15 AM 51.8 °F 28.9 °F 41% 30.11 in 10.0 mi SSE 4.6 mph - N/A   Clear
1:35 AM 51.4 °F 28.4 °F 41% 30.10 in 10.0 mi SE 6.9 mph - N/A   Clear
1:55 AM 50.9 °F 28.0 °F 41% 30.10 in 10.0 mi SE 5.8 mph - N/A   Clear
2:15 AM 51.3 °F 27.5 °F 40% 30.10 in 10.0 mi SSE 5.8 mph - N/A   Clear
2:35 AM 51.6 °F 28.0 °F 40% 30.09 in 10.0 mi SSE 6.9 mph - N/A   Clear
2:55 AM 51.1 °F 28.2 °F 41% 30.09 in 10.0 mi SSE 8.1 mph - N/A   Clear
3:15 AM 49.3 °F 30.7 °F 49% 30.09 in 10.0 mi South 3.5 mph - N/A   Clear
3:35 AM 50.7 °F 30.9 °F 47% 30.09 in 10.0 mi SSE 4.6 mph - N/A   Clear
3:55 AM 49.8 °F 32.7 °F 52% 30.08 in 10.0 mi SSE 5.8 mph - N/A   Clear
4:15 AM 48.9 °F 33.8 °F 56% 30.08 in 10.0 mi South 5.8 mph - N/A   Clear
4:35 AM 48.4 °F 34.2 °F 58% 30.07 in 10.0 mi South 8.1 mph - N/A   Clear
4:55 AM 48.9 °F 34.7 °F 58% 30.07 in 10.0 mi South 5.8 mph - N/A   Clear
5:15 AM 49.1 °F 34.7 °F 58% 30.07 in 10.0 mi SSE 6.9 mph - N/A   Clear
5:35 AM 48.9 °F 35.6 °F 60% 30.07 in 10.0 mi SSE 6.9 mph - N/A   Clear
5:55 AM 48.4 °F 36.1 °F 63% 30.07 in 10.0 mi SSE 4.6 mph - N/A   Clear
6:15 AM 46.8 °F 35.8 °F 66% 30.07 in 10.0 mi South 5.8 mph - N/A   Clear
6:35 AM 47.1 °F 36.1 °F 66% 30.07 in 10.0 mi South 6.9 mph - N/A   Clear
6:55 AM 46.8 °F 36.7 °F 68% 30.08 in 10.0 mi South 5.8 mph - N/A   Clear
7:15 AM 48.9 °F 38.5 °F 67% 30.08 in 10.0 mi South 6.9 mph - N/A   Clear
7:35 AM 51.3 °F 38.5 °F 62% 30.08 in 10.0 mi South 8.1 mph - N/A   Clear
7:55 AM 53.6 °F 38.5 °F 57% 30.08 in 10.0 mi South 11.5 mph - N/A   Clear
8:15 AM 55.6 °F 39.2 °F 54% 30.07 in 10.0 mi South 10.4 mph - N/A   Clear
8:35 AM 57.4 °F 39.6 °F 51% 30.07 in 10.0 mi South 12.7 mph - N/A   Clear
8:55 AM 59.2 °F 39.9 °F 49% 30.06 in 10.0 mi South 15.0 mph 20.7 mph N/A   Clear
9:15 AM 61.2 °F 40.6 °F 47% 30.05 in 10.0 mi South 18.4 mph - N/A   Clear
9:35 AM 61.9 °F 40.8 °F 46% 30.05 in 10.0 mi South 17.3 mph - N/A   Clear
9:55 AM 63.5 °F 41.4 °F 44% 30.05 in 10.0 mi South 17.3 mph - N/A   Clear
10:15 AM 65.5 °F 41.9 °F 42% 30.05 in 10.0 mi South 17.3 mph - N/A   Clear
10:35 AM 67.1 °F 41.4 °F 39% 30.04 in 10.0 mi South 15.0 mph - N/A   Clear
10:55 AM 68.0 °F 41.4 °F 38% 30.03 in 10.0 mi South 17.3 mph - N/A   Clear
11:15 AM 69.3 °F 41.9 °F 37% 30.03 in 10.0 mi South 17.3 mph - N/A   Clear
11:35 AM 70.2 °F 42.3 °F 36% 30.03 in 10.0 mi South 17.3 mph - N/A   Clear
11:55 AM 71.6 °F 41.7 °F 34% 30.02 in 10.0 mi South 19.6 mph - N/A   Clear
12:15 PM 72.5 °F 41.9 °F 33% 30.01 in 10.0 mi South 20.7 mph - N/A   Clear
12:35 PM 73.8 °F 41.7 °F 32% 30.00 in 10.0 mi South 20.7 mph - N/A   Clear
12:55 PM 75.0 °F 42.1 °F 31% 29.99 in 10.0 mi SSE 18.4 mph 25.3 mph N/A   Clear
1:15 PM 75.7 °F 41.9 °F 30% 29.98 in 10.0 mi SSE 19.6 mph 25.3 mph N/A   Clear
1:35 PM 77.5 °F 42.3 °F 28% 29.97 in 10.0 mi South 19.6 mph 26.5 mph N/A   Clear
1:55 PM 79.2 °F 41.7 °F 26% 29.96 in 10.0 mi South 21.9 mph 27.6 mph N/A   Clear
2:15 PM 79.5 °F 41.4 °F 26% 29.95 in 10.0 mi South 21.9 mph 26.5 mph N/A   Clear
2:35 PM 80.6 °F 42.4 °F 26% 29.94 in 10.0 mi South 20.7 mph - N/A   Clear
3:35 PM 83.1 °F 42.1 °F 23% 29.92 in 10.0 mi South 23.0 mph 29.9 mph N/A   Clear
3:55 PM 82.8 °F 41.9 °F 24% 29.91 in 10.0 mi South 19.6 mph 27.6 mph N/A   Clear
4:15 PM 83.1 °F 41.4 °F 23% 29.91 in 10.0 mi South 23.0 mph 29.9 mph N/A   Clear
4:35 PM 83.5 °F 41.4 °F 23% 29.90 in 10.0 mi South 27.6 mph 33.4 mph N/A   Clear
4:55 PM 84.2 °F 41.2 °F 22% 29.89 in 10.0 mi South 23.0 mph 28.8 mph N/A   Clear
5:15 PM 84.2 °F 39.4 °F 20% 29.88 in 10.0 mi SSW 21.9 mph 28.8 mph N/A   Clear
5:35 PM 84.2 °F 38.8 °F 20% 29.88 in 10.0 mi South 23.0 mph 28.8 mph N/A   Clear
5:55 PM 82.8 °F 39.4 °F 21% 29.88 in 10.0 mi South 20.7 mph 27.6 mph N/A   Clear
6:35 PM 82.4 °F 41.5 °F 23% 29.86 in 10.0 mi South 19.6 mph - N/A   Clear
7:15 PM 80.4 °F 43.7 °F 27% 29.84 in 10.0 mi South 17.3 mph - N/A   Clear
7:35 PM 79.5 °F 44.4 °F 29% 29.84 in 10.0 mi South 18.4 mph 21.9 mph N/A   Clear
7:55 PM 78.4 °F 45.0 °F 30% 29.84 in 10.0 mi South 17.3 mph - N/A   Clear
8:15 PM 77.5 °F 45.5 °F 32% 29.84 in 10.0 mi South 17.3 mph - N/A   Clear
8:35 PM 76.5 °F 45.9 °F 34% 29.84 in 10.0 mi South 16.1 mph - N/A   Clear
8:55 PM 75.6 °F 46.2 °F 35% 29.84 in 10.0 mi South 15.0 mph - N/A   Clear
9:15 PM 74.8 °F 47.1 °F 37% 29.85 in 10.0 mi South 15.0 mph - N/A   Clear
9:35 PM 74.1 °F 47.7 °F 39% 29.85 in 10.0 mi South 13.8 mph - N/A   Clear
9:55 PM 73.4 °F 48.6 °F 41% 29.85 in 10.0 mi South 13.8 mph - N/A   Clear
10:15 PM 72.3 °F 49.3 °F 44% 29.86 in 10.0 mi South 12.7 mph - N/A   Clear
10:35 PM 72.0 °F 50.0 °F 46% 29.86 in 10.0 mi South 13.8 mph - N/A   Clear
10:55 PM 71.8 °F 50.7 °F 47% 29.86 in 10.0 mi South 13.8 mph - N/A   Clear
11:15 PM 70.9 °F 50.9 °F 49% 29.85 in 10.0 mi South 12.7 mph - N/A   Clear
11:35 PM 70.2 °F 51.3 °F 51% 29.85 in 10.0 mi South 11.5 mph - N/A   Clear
11:55 PM 68.9 °F 51.4 °F 54% 29.85 in 10.0 mi South 11.5 mph - N/A   Clear